STARLINK-1361, 45567

Orbit data source: Space-Track

STARLINK-1361, 45567 is a payload satellite owned by SpaceX/Seattle (US) in LEO that was launched on Wed, 22 Apr 2020 UTC via an FALCON 9 launch vehicle from the Air Force Eastern Test Range (AFETR). Payloads include a variety of satellites, spacecraft, and rockets equipped with specific instruments for various scientific and technological missions. These include communications satellites like Starlink; space stations such as the ISS; scientific satellites like the Hubble; Earth observation satellites from companies like Planet Labs, Umbra, and HawkEye 360; GPS; miniature CubeSats for education and research; and military/defense satellites.

Loading next visibility...
STARLINK-1361 details
Identifier
45567, 2020-025AN
Orbit
LEO
Last TLE update1 day ago
Origin
Flag of USSpaceX/Seattle (US)
ManufacturerSpaceX/Seattle
MissionOperational Commercial Communications
Bus & MotorSTARLINK, Unknown motor
Mass260 kg wet, ~248 kg dry
Launch date (UTC)
2020-04-22 (5 years ago)
Launch vehicle
FALCON 9
Launch site
Air Force Eastern Test Range (AFETR)
Object type
Payload
Rocket body
Debris
Shape & HBRBox + 1 Pan, 8.86 m
Radar Cross Section13.562 m², Large (>1 m²)

Expand to show TLE details & history

TLE from 1 day ago
0 STARLINK-1361
1 45567U 20025AN  24360.14379465  .00019321  00000-0  13128-2 0  9993
2 45567  53.0547 259.8150 0001530 104.4939 255.6219 15.06388740259123
Epoch: 2024-12-25T03:27Z
Definitive object data (Epoch: 2024-12-25T03:27:03.857Z)
Latitude-0.0001°
Longitude113.90709°
Altitude548.389 km
Speed7.589 km/s
True Right ascension17h 19m 15s
True Declination0° 00' 00"
Sunlit
Object was in daylight at TLE epoch
Visualization TLE readout
Latitude13.71753°
Longitude118.45389°
Altitude547.243 km
Speed7.591 km/s
Apparent Right ascension19h 42m 15s
Apparent Declination-14° 50' 56"
Sunlit
Object is in daylight
Visualization observer readout
Local Sidereal Time10:43:43
Azimuth70.825° E
Elevation-43.259°
Doppler factor1
Orbital elements
Apogee altitude548.576 km
Perigee altitude546.457 km
Semi-major axis6,925.654 km
Eccentricity0.000153
Inclination53.0547°
RAAN259.815°
Arg. of periapsis104.4939°
True anomaly255.60492°
Mean anomaly255.6219°
Eccentric anomaly255.61341°
Mean motion3.76575 °/min
BSTAR0.0013128
Orbital period95.6 mins
Loading maneuver chart data...
Loading historical data...
Loading historical data...
Loading historical data...
Loading historical data...
Loading historical data...
Loading historical data...
Loading historical data...

STARLINK-1361 Visibility forecast

Observer location: undefined°, undefined

Span
Click to sort rows by Start time (UTC) header in descending order
Start Az.
Max El. time (UTC)
Max El. Az.
Max El.
End time (UTC)
End Az.
6 mins2024-12-26 19:25:22.942Z202.662° SW2024-12-26 19:28:22.942Z134.355° SE35.574°2024-12-26 19:31:22.942Z65.784° ENE
5 mins2024-12-26 21:06:22.942Z291.2° WNW2024-12-26 21:08:22.942Z342.496° N26.443°2024-12-26 21:11:22.942Z32.705° NE
6 mins2024-12-27 02:07:22.942Z327.874° NNW2024-12-27 02:09:22.942Z12.929° NNE35.71°2024-12-27 02:13:22.942Z108.244° ESE
5 mins2024-12-27 03:47:22.942Z266.488° W2024-12-27 03:49:22.942Z223.921° SW22.054°2024-12-27 03:52:22.942Z176.503° S
|